Location: Wien
(48.2082°N, 16.3738°E)
Time: 12:26:39
(UTC+01:00)

S-56A Canister/Altair - All Passes

Search period start: 22 February 2024 00:00
Search period end: 03 March 2024 00:00
Orbit: 640 x 2488 km, 38.9° (Epoch: 21 February)

Date Brightness Start Highest point End Pass type
(mag) Time Alt. Az. Time Alt. Az. Time Alt. Az.
22 Feb - 10:35:31 10° SSW 10:39:04 17° SSE 10:42:11 10° ESE daylight
22 Feb - 12:37:56 10° SW 12:41:54 26° S 12:45:39 10° ESE daylight
22 Feb - 14:41:25 10° WSW 14:44:40 20° SSW 14:48:08 10° SSE daylight
23 Feb - 10:02:16 10° SSW 10:05:55 17° SSE 10:09:04 10° ESE daylight
23 Feb - 12:04:38 10° SW 12:08:49 26° S 12:12:35 10° ESE daylight
23 Feb - 14:08:12 10° WSW 14:11:35 21° SSW 14:15:03 10° SE daylight
24 Feb - 09:28:59 10° SSW 09:32:45 16° SSE 09:35:56 10° ESE daylight
24 Feb - 11:31:16 10° SW 11:35:43 27° S 11:39:33 10° ESE daylight
24 Feb - 13:34:56 10° WSW 13:38:30 22° SSW 13:42:01 10° SE daylight
25 Feb - 08:55:39 10° SSW 08:59:31 16° SSE 09:02:48 10° ESE daylight
25 Feb - 10:57:49 10° SW 11:02:36 27° S 11:06:32 10° ESE daylight
25 Feb - 13:01:35 10° WSW 13:05:25 24° SSW 13:09:01 10° SE daylight
26 Feb - 08:22:18 10° S 08:26:18 15° SSE 08:29:39 10° ESE daylight
26 Feb - 10:24:19 10° SW 10:29:27 27° S 10:33:34 10° ESE daylight
26 Feb - 12:28:10 10° WSW 12:32:20 26° S 12:36:04 10° SE daylight
26 Feb - 14:33:33 10° SW 14:34:55 11° SSW 14:36:16 10° S daylight
27 Feb - 07:48:56 10° S 07:53:01 15° SSE 07:56:27 10° ESE daylight
27 Feb - 09:50:44 10° SW 09:56:16 27° S 10:00:35 10° ESE daylight
27 Feb - 11:54:40 10° WSW 11:59:14 28° S 12:03:08 10° SE daylight
27 Feb - 13:59:42 10° SW 14:01:49 13° SSW 14:03:54 10° S daylight
28 Feb - 07:15:36 10° S 07:19:42 14° SSE 07:23:11 10° ESE daylight
28 Feb - 09:17:04 10° SW 09:23:04 28° S 09:27:37 10° ESE daylight
28 Feb - 11:21:07 10° WSW 11:26:08 30° S 11:30:13 10° SE daylight
28 Feb - 13:26:00 10° WSW 13:28:44 15° SSW 13:31:20 10° S daylight
29 Feb - 06:42:17 10° S 06:46:20 14° SSE 06:49:49 10° ESE daylight
29 Feb - 08:43:21 10° SW 08:49:49 28° SSE 08:54:38 10° ESE daylight
29 Feb - 10:47:27 10° WSW 10:52:59 32° S 10:57:19 10° ESE daylight
29 Feb - 12:52:19 10° WSW 12:55:39 18° SSW 12:58:42 10° SSE daylight
01 Mar - 06:09:04 10° S 06:12:57 13° SSE 06:16:20 10° SE visible
01 Mar - 08:09:35 10° SW 08:16:31 28° SSE 08:21:38 10° ESE daylight
01 Mar - 10:13:43 10° WSW 10:19:49 34° S 10:24:24 10° ESE daylight
01 Mar - 12:18:37 10° WSW 12:22:35 21° SSW 12:26:01 10° SSE daylight
02 Mar - 05:35:59 10° SSE 05:39:31 12° SSE 05:42:40 10° SE visible
02 Mar - 07:35:47 10° SW 07:43:10 27° SSE 07:48:36 10° ESE daylight
02 Mar - 09:39:54 10° WSW 09:46:37 35° S 09:51:30 10° ESE daylight
02 Mar - 11:44:54 10° WSW 11:49:29 24° SSW 11:53:18 10° SSE daylight
